AVA9701 SKBO-SKEJ

Flight info

Callsign AVA9701
Flight time 0h 28m
Altitude 21000
Route OSUSU4R GIKPU A301 YACAR YACAR1A
Aircraft A320/M-SDE3FGHIRWY/LB1

Departure

Time 2026-05-07 21:23
Airport El Dorado International Airport (SKBO)

Arrival

Time 2026-05-07 21:51
Airport Yariguíes Airport (SKEJ)
Time Latitude Longitude Altitude Speed Heading
2026-05-07 21:05 4.69903 -74.14507 8373 ft 0 kts 212°
2026-05-07 21:14 4.69905 -74.14506 8373 ft 3 kts 213°
2026-05-07 21:14 4.69927 -74.14491 8372 ft 3 kts 212°
2026-05-07 21:14 4.69944 -74.14478 8370 ft 4 kts 246°
2026-05-07 21:14 4.69946 -74.14454 8372 ft 4 kts 291°
2026-05-07 21:15 4.69933 -74.14431 8372 ft 3 kts 307°
2026-05-07 21:15 4.69943 -74.14443 8373 ft 4 kts 307°
2026-05-07 21:15 4.69959 -74.14464 8372 ft 4 kts 307°
2026-05-07 21:15 4.69964 -74.14471 8372 ft 0 kts 307°
2026-05-07 21:17 4.69966 -74.14474 8372 ft 2 kts 307°
2026-05-07 21:17 4.69978 -74.14489 8372 ft 4 kts 308°
2026-05-07 21:18 4.70000 -74.14520 8371 ft 7 kts 305°
2026-05-07 21:18 4.70039 -74.14571 8373 ft 11 kts 315°
2026-05-07 21:18 4.70116 -74.14549 8373 ft 14 kts 37°
2026-05-07 21:18 4.70201 -74.14484 8371 ft 17 kts 36°
2026-05-07 21:19 4.70264 -74.14435 8373 ft 18 kts 38°
2026-05-07 21:19 4.70360 -74.14364 8372 ft 16 kts 37°
2026-05-07 21:19 4.70453 -74.14364 8373 ft 15 kts 310°
2026-05-07 21:19 4.70524 -74.14459 8373 ft 19 kts 308°
2026-05-07 21:20 4.70607 -74.14570 8373 ft 21 kts 304°
2026-05-07 21:20 4.70699 -74.14689 8373 ft 21 kts 308°
2026-05-07 21:20 4.70786 -74.14806 8373 ft 21 kts 307°
2026-05-07 21:20 4.70875 -74.14924 8374 ft 21 kts 307°
2026-05-07 21:21 4.70965 -74.15044 8373 ft 22 kts 306°
2026-05-07 21:21 4.71057 -74.15167 8372 ft 23 kts 307°
2026-05-07 21:21 4.71188 -74.15229 8373 ft 20 kts 355°
2026-05-07 21:21 4.71307 -74.15214 8371 ft 17 kts 55°
2026-05-07 21:22 4.71262 -74.15105 8371 ft 26 kts 126°
2026-05-07 21:22 4.71019 -74.14783 8370 ft 89 kts 127°
2026-05-07 21:22 4.70529 -74.14140 8371 ft 141 kts 127°
2026-05-07 21:22 4.69843 -74.13237 8402 ft 180 kts 125°
2026-05-07 21:23 4.69096 -74.12259 9180 ft 175 kts 124°
2026-05-07 21:23 4.68715 -74.11128 9677 ft 174 kts 85°
2026-05-07 21:23 4.69131 -74.10006 10013 ft 175 kts 50°
2026-05-07 21:23 4.70127 -74.09313 10377 ft 178 kts 20°
2026-05-07 21:24 4.71311 -74.08927 10735 ft 180 kts 20°
2026-05-07 21:24 4.72502 -74.08536 11082 ft 180 kts 20°
2026-05-07 21:24 4.73697 -74.08142 11392 ft 181 kts 21°
2026-05-07 21:24 4.74935 -74.07732 11533 ft 194 kts 21°
2026-05-07 21:25 4.76267 -74.07291 11656 ft 209 kts 20°
2026-05-07 21:25 4.77695 -74.06817 11779 ft 224 kts 20°
2026-05-07 21:25 4.79212 -74.06310 11893 ft 242 kts 20°
2026-05-07 21:25 4.80877 -74.05748 11784 ft 260 kts 20°
2026-05-07 21:26 4.82612 -74.05163 12324 ft 266 kts 20°
2026-05-07 21:26 4.84375 -74.04568 12923 ft 269 kts 20°
2026-05-07 21:26 4.86156 -74.03969 13551 ft 271 kts 20°
2026-05-07 21:26 4.87957 -74.03361 14134 ft 274 kts 21°
2026-05-07 21:27 4.89772 -74.02746 14675 ft 277 kts 21°
2026-05-07 21:27 4.91604 -74.02127 15226 ft 279 kts 20°
2026-05-07 21:27 4.93447 -74.01503 15769 ft 281 kts 20°
2026-05-07 21:27 4.95308 -74.00871 16313 ft 283 kts 20°
2026-05-07 21:28 4.97182 -74.00235 16857 ft 285 kts 20°
2026-05-07 21:28 4.99069 -73.99597 17399 ft 287 kts 20°
2026-05-07 21:28 5.00965 -73.98955 17961 ft 288 kts 20°
2026-05-07 21:28 5.02866 -73.98351 18441 ft 291 kts 18°
2026-05-07 21:29 5.04841 -73.97823 18890 ft 294 kts 16°
2026-05-07 21:29 5.06838 -73.97337 19342 ft 296 kts 15°
2026-05-07 21:29 5.08854 -73.96861 19770 ft 299 kts 14°
2026-05-07 21:29 5.10887 -73.96381 20218 ft 301 kts 15°
2026-05-07 21:30 5.12934 -73.95886 20650 ft 303 kts 15°
2026-05-07 21:30 5.15001 -73.95378 20940 ft 311 kts 15°
2026-05-07 21:30 5.17159 -73.94844 21004 ft 328 kts 15°
2026-05-07 21:30 5.19433 -73.94279 21008 ft 346 kts 15°
2026-05-07 21:31 5.21832 -73.93682 21004 ft 364 kts 15°
2026-05-07 21:31 5.24350 -73.93054 21034 ft 381 kts 15°
2026-05-07 21:31 5.26978 -73.92400 21033 ft 396 kts 15°
2026-05-07 21:31 5.29672 -73.91730 21013 ft 401 kts 15°
2026-05-07 21:32 5.32385 -73.91057 21013 ft 402 kts 15°
2026-05-07 21:32 5.35106 -73.90382 21013 ft 403 kts 15°
2026-05-07 21:32 5.37863 -73.89697 21014 ft 416 kts 14°
2026-05-07 21:32 5.40717 -73.88984 21015 ft 430 kts 15°
2026-05-07 21:33 5.43658 -73.88247 20997 ft 441 kts 14°
2026-05-07 21:33 5.46675 -73.87491 20998 ft 451 kts 15°
2026-05-07 21:33 5.49742 -73.86725 20997 ft 456 kts 14°
2026-05-07 21:33 5.52826 -73.85956 20995 ft 457 kts 14°
2026-05-07 21:34 5.55879 -73.85232 20997 ft 457 kts 13°
2026-05-07 21:34 5.58986 -73.84566 20975 ft 457 kts 12°
2026-05-07 21:34 5.62105 -73.83946 20975 ft 457 kts 11°
2026-05-07 21:34 5.65224 -73.83344 20975 ft 457 kts 11°
2026-05-07 21:35 5.68352 -73.82736 20973 ft 457 kts 11°
2026-05-07 21:35 5.71470 -73.82118 20961 ft 457 kts 12°
2026-05-07 21:35 5.74586 -73.81484 20959 ft 457 kts 12°
2026-05-07 21:35 5.77696 -73.80841 20959 ft 457 kts 12°
2026-05-07 21:36 5.80810 -73.80195 20961 ft 457 kts 12°
2026-05-07 21:36 5.83925 -73.79548 20961 ft 457 kts 12°
2026-05-07 21:36 5.87038 -73.78904 20970 ft 457 kts 12°
2026-05-07 21:36 5.90148 -73.78258 20974 ft 457 kts 12°
2026-05-07 21:37 5.93263 -73.77612 20973 ft 457 kts 12°
2026-05-07 21:37 5.96375 -73.76968 20975 ft 457 kts 12°
2026-05-07 21:37 5.99453 -73.76333 20947 ft 456 kts 12°
2026-05-07 21:37 6.02572 -73.75692 20948 ft 456 kts 12°
2026-05-07 21:38 6.05681 -73.75052 20808 ft 458 kts 12°
2026-05-07 21:38 6.08805 -73.74410 19861 ft 459 kts 12°
2026-05-07 21:38 6.11897 -73.73775 19417 ft 448 kts 12°
2026-05-07 21:38 6.14930 -73.73154 18909 ft 440 kts 12°
2026-05-07 21:39 6.17927 -73.72542 18688 ft 441 kts 12°
2026-05-07 21:39 6.20933 -73.71927 18466 ft 441 kts 12°
2026-05-07 21:39 6.23932 -73.71312 18135 ft 439 kts 12°
2026-05-07 21:39 6.26918 -73.70695 17502 ft 435 kts 12°
2026-05-07 21:40 6.29866 -73.70083 16898 ft 431 kts 12°
2026-05-07 21:40 6.32789 -73.69473 16363 ft 427 kts 13°
2026-05-07 21:40 6.35687 -73.68871 15825 ft 424 kts 12°
2026-05-07 21:40 6.38565 -73.68276 15274 ft 420 kts 13°
2026-05-07 21:41 6.41418 -73.67687 14720 ft 417 kts 13°
2026-05-07 21:41 6.44251 -73.67102 14127 ft 414 kts 13°
2026-05-07 21:41 6.47082 -73.66591 13512 ft 412 kts
2026-05-07 21:41 6.49898 -73.66775 12877 ft 412 kts 349°
2026-05-07 21:42 6.52668 -73.67469 12223 ft 409 kts 347°
2026-05-07 21:42 6.55410 -73.68181 11570 ft 406 kts 346°
2026-05-07 21:42 6.58115 -73.68886 11198 ft 394 kts 346°
2026-05-07 21:42 6.60677 -73.69556 11042 ft 365 kts 346°
2026-05-07 21:43 6.63035 -73.70173 10861 ft 337 kts 346°
2026-05-07 21:43 6.65221 -73.70746 10749 ft 312 kts 346°
2026-05-07 21:43 6.67248 -73.71276 10627 ft 290 kts 345°
2026-05-07 21:43 6.69050 -73.72007 10506 ft 270 kts 330°
2026-05-07 21:44 6.70515 -73.73088 10384 ft 252 kts 317°
2026-05-07 21:44 6.71720 -73.74287 10214 ft 236 kts 316°
2026-05-07 21:44 6.72871 -73.75422 9912 ft 229 kts 317°
2026-05-07 21:44 6.74009 -73.76538 9443 ft 230 kts 317°
2026-05-07 21:45 6.75194 -73.77700 8570 ft 246 kts 316°
2026-05-07 21:45 6.76458 -73.78941 7763 ft 258 kts 316°
2026-05-07 21:45 6.77740 -73.80202 7194 ft 257 kts 316°
2026-05-07 21:45 6.79014 -73.81455 6675 ft 255 kts 315°
2026-05-07 21:46 6.80275 -73.82699 6154 ft 253 kts 315°
2026-05-07 21:46 6.81510 -73.83917 5641 ft 250 kts 315°
2026-05-07 21:46 6.82765 -73.85158 5083 ft 249 kts 316°
2026-05-07 21:46 6.83984 -73.86362 4559 ft 247 kts 316°
2026-05-07 21:47 6.85208 -73.87572 4019 ft 246 kts 316°
2026-05-07 21:47 6.86449 -73.88744 3536 ft 242 kts 326°
2026-05-07 21:47 6.87921 -73.89192 3486 ft 210 kts
2026-05-07 21:47 6.89224 -73.88736 3243 ft 191 kts 27°
2026-05-07 21:48 6.90333 -73.88098 2991 ft 173 kts 31°
2026-05-07 21:48 6.91311 -73.87487 2748 ft 158 kts 32°
2026-05-07 21:48 6.92212 -73.86924 2551 ft 149 kts 31°
2026-05-07 21:48 6.93081 -73.86385 2358 ft 145 kts 31°
2026-05-07 21:49 6.93941 -73.85857 2169 ft 144 kts 31°
2026-05-07 21:49 6.94796 -73.85333 1977 ft 143 kts 31°
2026-05-07 21:49 6.95650 -73.84811 1789 ft 143 kts 32°
2026-05-07 21:49 6.96498 -73.84293 1609 ft 143 kts 32°
2026-05-07 21:50 6.97345 -73.83778 1411 ft 142 kts 32°
2026-05-07 21:50 6.98191 -73.83264 1249 ft 141 kts 31°
2026-05-07 21:50 6.99034 -73.82739 1074 ft 142 kts 33°
2026-05-07 21:50 6.99884 -73.82221 874 ft 144 kts 30°
2026-05-07 21:51 7.00744 -73.81703 682 ft 144 kts 31°
2026-05-07 21:51 7.01607 -73.81182 487 ft 145 kts 31°
2026-05-07 21:51 7.02424 -73.80693 420 ft 119 kts 30°
2026-05-07 21:51 7.02884 -73.80419 420 ft 45 kts 30°
2026-05-07 21:52 7.03053 -73.80318 419 ft 13 kts 30°
2026-05-07 21:52 7.03108 -73.80307 423 ft 5 kts
2026-05-07 21:52 7.03128 -73.80303 421 ft 1 kts 18°
2026-05-07 21:52 7.03129 -73.80302 421 ft 0 kts 30°
2026-05-07 21:53 7.03128 -73.80296 422 ft 2 kts 88°
2026-05-07 21:53 7.03087 -73.80306 423 ft 11 kts 207°
2026-05-07 21:53 7.02983 -73.80351 421 ft 19 kts 212°
2026-05-07 21:53 7.02852 -73.80432 423 ft 24 kts 210°
2026-05-07 21:54 7.02701 -73.80523 416 ft 26 kts 211°
2026-05-07 21:54 7.02568 -73.80607 419 ft 6 kts 215°
2026-05-07 21:54 7.02554 -73.80656 423 ft 11 kts 257°
2026-05-07 21:54 7.02534 -73.80721 422 ft 8 kts 238°
2026-05-07 21:55 7.02487 -73.80754 422 ft 9 kts 213°
2026-05-07 21:55 7.02438 -73.80795 422 ft 8 kts 252°
2026-05-07 21:55 7.02450 -73.80820 420 ft 4 kts 302°
2026-05-07 21:55 7.02463 -73.80841 424 ft 0 kts 302°